User: anonymous   Login
Location: Shell Point
(30.0571°N, 84.2896°W)
Time: 03:25:49
(UTC-04:00)
Language:

Meteor 2-19 Rocket - Orbit

View from above orbital plane
View from above orbital plane
View from above satellite
View from above satellite

Ground track
Ground track

The orbit data is extracted from the following two-line orbital elements,

1 20671U 90057B   16212.52543293  .00000025  00000-0  88033-5 0  9996
2 20671  82.5462 267.7907 0016178 137.1101 333.9392 13.84602275318552
Epoch (UTC): 30 July 2016 12:36:37
Eccentricity: 0.0016178
inclination: 82.5462°
perigee height: 936 km
apogee height: 959 km
right ascension of ascending node: 267.7907°
argument of perigee: 137.1101°
revolutions per day: 13.84602275
mean anomaly at epoch: 333.9392°
orbit number at epoch: 31855

The dashed part of the orbit path shows where the satellite is in the earth's shadow,  

DLR